الصفحة الرئيسية
METAR-TAF:

METAR-TAF

مطار :

Akron, كولورادو, الولايات المتحدة

دائرة عرض: 40-10-28N, خط طول: 103-12-52W, ارتفاع: 1431 متر

مراقبة الطقس الحالي

تاريخ ووقت الإصدار 31 دقيقة قبل الساعة 12:53UTC
ريح 8 عقدة من الغرب
درجة الحرارة -14°درجة مئوية
الرطوبة 78%
ضغط 1015 hPa
الرؤية: 16.1 كم
سماء صافية

METAR: KAKO 231253Z AUTO 27008KT 10SM CLR M14/M17 A2998 RMK AO2 SLP225 T11391172

زمن: 06:24 (13:24 UTC)


TAF: مفقودة

أرصاد الطقس والتوقعات من أكثر من 4000 مطار (تقارير الطقس للمطار METAR والتنبؤ بالطقس بالمطارTAF).

المحطات المتاحة هي النقط الصفراء والحمراء على الخريطة.

حرك المؤشر فوق النقطة لمعرفة اسم المحطة.

ثم انقر لمعرفة أرصاد وتوقعات الطقس.

لتغيير الخارطة: اضغط على الأزرار الخضراء مع رمز الصليب الأسود للتكبير. على الزر الأخضر مع شرطة للتصغير، أو على الأسهم الخضراء للخرائط المجاورة.


METAR-TAF: